Stations météo

réclame
Mon MeteoGroup
Amsterdam Airport, Pays-Bas (6240): Température de l'air & dewpoint: 14.04.2018 22:00:00 - 20.04.2018 22:00:00 (CEST)Amsterdam Airport, Pays-Bas (6240): Température de l'air 5cm: 14.04.2018 22:00:00 - 20.04.2018 22:00:00 (CEST)Amsterdam Airport, Pays-Bas (6240): Vitesse du vent & gusts: 14.04.2018 22:00:00 - 20.04.2018 22:00:00 (CEST)Amsterdam Airport, Pays-Bas (6240): Direction du vent: 14.04.2018 22:00:00 - 20.04.2018 22:00:00 (CEST)Amsterdam Airport, Pays-Bas (6240): reduced air pressure: 14.04.2018 22:00:00 - 20.04.2018 22:00:00 (CEST)Amsterdam Airport, Pays-Bas (6240): visibility: 14.04.2018 22:00:00 - 20.04.2018 22:00:00 (CEST)Amsterdam Airport, Pays-Bas (6240): Quantités de précipitations: 14.04.2018 22:00:00 - 20.04.2018 22:00:00 (CEST)
Date & Time tt [°C] td [°C] tt 5cm [°C] ff [km/h] ff [knt] fx [km/h] fx [knt] dd ppp [hPa] vv [km] rr [mm]
20.04.2018 22:00:00 11,0 9,0 9,8 13 7 - - NW 1022,5 5 -
20.04.2018 21:00:00 12,5 9,0 11,8 16 9 25 14 NW 1022,4 5 0,0
20.04.2018 20:00:00 17,0 10,3 16,0 14 8 22 12 WNW 1021,6 10 0,0
20.04.2018 19:00:00 19,3 10,8 19,4 13 7 22 12 WNW 1021,8 10 0,0
20.04.2018 18:00:00 21,6 10,7 22,4 14 8 22 12 W 1021,9 20 0,0
20.04.2018 17:00:00 22,5 9,9 23,3 14 8 - - W 1022,0 21 0,0
20.04.2018 16:00:00 22,4 9,3 23,5 18 10 29 16 W 1022,2 20 0,0
20.04.2018 15:00:00 24,0 10,0 24,8 18 10 29 16 W 1022,4 20 0,0
20.04.2018 14:00:00 24,1 13,4 24,9 16 9 25 14 W 1022,5 10 0,0
20.04.2018 13:00:00 24,4 13,3 25,2 18 10 25 14 W 1022,6 10 0,0
20.04.2018 12:00:00 23,6 13,5 24,5 16 9 25 14 W 1022,6 10 0,0
20.04.2018 11:00:00 22,4 13,7 23,0 9 5 14 8 WSW 1022,4 10 0,0
20.04.2018 10:00:00 20,3 13,0 20,6 9 5 14 8 SSW 1022,1 10 0,0
20.04.2018 09:00:00 18,0 12,4 17,5 8 4 11 6 S 1022,2 10 0,0
20.04.2018 08:00:00 15,6 10,8 12,3 7 4 7 4 S 1022,3 6 0,0
20.04.2018 07:00:00 12,6 9,0 7,4 7 4 11 6 SSE 1022,0 5 0,0
20.04.2018 06:00:00 12,7 8,5 7,2 4 2 7 4 - 1022,0 8 0,0
20.04.2018 05:00:00 13,3 9,3 7,0 4 2 7 4 SSW 1022,2 7 0,0
20.04.2018 04:00:00 12,5 8,7 7,5 4 2 7 4 SSE 1022,4 9 0,0
20.04.2018 03:00:00 12,8 8,9 9,5 11 6 18 10 SSW 1022,7 8 0,0
20.04.2018 02:00:00 14,0 8,6 8,2 2 1 7 4 SSE 1022,9 10 0,0
20.04.2018 01:00:00 15,9 7,8 9,1 0 0 7 4 N 1023,0 10 0,0
20.04.2018 00:00:00 16,4 8,2 10,3 7 4 14 8 ENE 1023,1 11 0,0
19.04.2018 23:00:00 17,6 7,4 10,7 4 2 14 8 N 1023,7 10 0,0
19.04.2018 22:00:00 17,9 7,7 12,5 8 4 22 12 NNW 1024,0 10 0,0
19.04.2018 21:00:00 18,1 8,8 15,6 11 6 25 14 NNW 1023,6 10 0,0
19.04.2018 20:00:00 20,9 11,2 19,9 18 10 25 14 WNW 1023,3 12 0,0
19.04.2018 19:00:00 25,9 10,8 24,8 15 8 29 16 SE 1023,4 10 0,0
19.04.2018 18:00:00 26,6 10,6 25,9 18 10 29 16 SE 1023,7 10 0,0
19.04.2018 17:00:00 26,8 13,1 26,7 16 9 25 14 SE 1024,1 10 0,0
19.04.2018 16:00:00 26,6 12,3 26,9 16 9 29 16 SE 1024,7 10 0,0
19.04.2018 15:00:00 26,0 11,7 26,5 21 11 29 16 SE 1025,3 10 0,0
19.04.2018 14:00:00 25,3 11,3 26,1 22 12 32 18 SE 1025,6 10 0,0
19.04.2018 13:00:00 24,7 11,4 25,6 21 11 29 16 SE 1026,0 10 0,0
19.04.2018 12:00:00 23,7 11,0 24,3 22 12 32 18 SE 1026,5 10 0,0
19.04.2018 11:00:00 22,6 12,1 23,4 13 7 22 12 SE 1026,7 10 0,0
19.04.2018 10:00:00 20,7 10,7 21,3 14 8 22 12 ESE 1026,9 20 0,0
19.04.2018 09:00:00 18,6 10,2 18,3 15 8 22 12 ESE 1027,1 10 0,0
19.04.2018 08:00:00 15,8 9,8 14,6 13 7 18 10 ESE 1027,0 10 0,0
19.04.2018 07:00:00 13,9 9,2 11,9 14 8 18 10 ESE 1026,7 11 0,0
19.04.2018 06:00:00 13,7 9,0 11,8 15 8 18 10 ESE 1026,8 10 0,0
19.04.2018 05:00:00 14,7 9,1 13,0 14 8 25 14 ESE 1027,1 12 0,0
19.04.2018 04:00:00 16,3 9,0 14,6 18 10 25 14 ESE 1027,2 13 0,0
19.04.2018 03:00:00 16,6 8,9 15,3 18 10 29 16 ESE 1027,3 10 0,0
19.04.2018 02:00:00 17,6 8,5 15,8 18 10 29 16 E 1027,9 10 0,0
19.04.2018 01:00:00 16,1 8,9 13,6 16 9 22 12 E 1028,5 10 0,0
19.04.2018 00:00:00 15,4 9,0 11,9 13 7 18 10 E 1028,8 10 0,0
18.04.2018 23:00:00 13,5 9,4 10,4 15 8 36 19 ENE 1028,9 10 0,0
18.04.2018 22:00:00 16,2 9,9 13,2 13 7 18 10 ENE 1028,9 10 0,0
18.04.2018 21:00:00 16,6 9,4 12,3 11 6 14 8 NE 1029,0 10 0,0
18.04.2018 20:00:00 19,4 10,0 17,9 11 6 18 10 ENE 1028,8 10 0,0
18.04.2018 19:00:00 22,2 11,2 22,1 9 5 18 10 SE 1029,0 10 0,0
18.04.2018 18:00:00 22,9 9,4 23,3 11 6 18 10 SSE 1029,3 10 0,0
18.04.2018 17:00:00 23,2 10,6 24,2 11 6 25 14 ESE 1029,6 10 0,0
18.04.2018 16:00:00 23,0 9,2 24,3 11 6 22 12 SSE 1030,0 10 0,0
18.04.2018 15:00:00 22,9 9,6 24,6 11 6 25 14 S 1030,4 10 0,0
18.04.2018 14:00:00 22,3 9,8 24,2 11 6 22 12 S 1030,7 10 0,0
18.04.2018 13:00:00 21,6 11,1 23,2 15 8 22 12 SSE 1030,9 10 0,0
18.04.2018 12:00:00 20,5 12,0 22,1 13 7 18 10 SSE 1031,2 10 0,0
18.04.2018 11:00:00 18,9 10,6 20,5 9 5 14 8 S 1031,1 10 0,0
18.04.2018 10:00:00 16,9 10,4 17,6 9 5 14 8 SSE 1030,8 10 0,0
18.04.2018 09:00:00 14,3 9,4 14,7 5 3 11 6 SSE 1030,4 10 0,0
18.04.2018 08:00:00 11,7 8,7 10,7 9 5 14 8 SSE 1030,0 10 0,0
18.04.2018 07:00:00 9,8 7,3 5,6 8 4 11 6 E 1029,5 10 0,0
18.04.2018 06:00:00 9,6 7,2 4,5 5 3 7 4 SSE 1028,9 10 0,0
18.04.2018 05:00:00 8,8 7,1 4,3 5 3 7 4 SSE 1028,5 10 0,0
18.04.2018 04:00:00 9,5 8,7 4,9 5 3 7 4 ESE 1028,1 10 0,0
18.04.2018 03:00:00 10,6 7,8 5,5 4 2 7 4 ESE 1027,7 10 0,0
18.04.2018 02:00:00 10,8 7,8 6,9 8 4 11 6 SSE 1027,5 10 0,0
18.04.2018 01:00:00 11,4 7,8 8,4 11 6 14 8 S 1027,2 10 0,0
18.04.2018 00:00:00 12,2 8,3 9,6 13 7 14 8 SSW 1026,8 10 0,0
17.04.2018 23:00:00 12,4 7,6 9,9 13 7 18 10 S 1026,7 10 0,0
17.04.2018 22:00:00 13,9 8,2 12,0 15 8 18 10 S 1026,1 10 0,0
17.04.2018 21:00:00 14,6 7,9 12,4 15 8 18 10 S 1025,5 10 0,0
17.04.2018 20:00:00 16,9 8,6 16,0 16 9 29 16 SSW 1024,9 10 0,0
17.04.2018 19:00:00 18,5 8,0 18,4 21 11 32 18 SSW 1024,3 10 0,0
17.04.2018 18:00:00 18,9 7,9 19,1 22 12 36 19 SSW 1024,6 10 0,0
17.04.2018 17:00:00 19,1 7,8 19,7 22 12 36 19 SW 1024,6 10 0,0
17.04.2018 16:00:00 19,2 8,2 20,3 24 13 40 21 SW 1024,3 10 0,0
17.04.2018 15:00:00 19,0 8,2 19,4 22 12 36 19 SSW 1024,1 10 0,0
17.04.2018 14:00:00 17,8 7,3 18,2 28 15 43 23 SSW 1023,9 10 0,0
17.04.2018 13:00:00 17,5 7,2 18,8 29 16 43 23 SSW 1024,2 10 0,0
17.04.2018 12:00:00 16,9 7,2 18,0 24 13 43 23 S 1024,3 10 0,0
17.04.2018 11:00:00 15,6 8,8 16,2 24 13 36 19 S 1024,0 10 0,0
17.04.2018 10:00:00 13,2 7,9 13,6 22 12 32 18 SSE 1023,7 10 0,0
17.04.2018 09:00:00 11,1 6,6 10,8 18 10 32 18 SSE 1023,6 10 0,0
17.04.2018 08:00:00 9,1 5,4 8,2 18 10 25 14 SSE 1022,8 10 0,0
17.04.2018 07:00:00 6,3 3,9 3,9 8 4 11 6 SSE 1023,0 10 0,0
17.04.2018 06:00:00 6,3 4,1 3,5 5 3 14 8 SSE 1022,0 10 0,0
17.04.2018 05:00:00 6,7 4,5 5,5 13 7 18 10 SSE 1021,6 10 0,0
17.04.2018 04:00:00 7,0 4,5 6,0 13 7 18 10 S 1021,7 10 0,0
17.04.2018 03:00:00 5,5 3,4 2,9 11 6 14 8 S 1021,4 10 0,0
17.04.2018 02:00:00 6,0 3,4 2,5 9 5 14 8 S 1021,3 10 0,0
17.04.2018 01:00:00 5,8 2,9 3,4 9 5 14 8 S 1021,0 10 0,0
17.04.2018 00:00:00 7,2 3,1 3,8 8 4 14 8 S 1020,6 10 0,0
16.04.2018 23:00:00 7,5 3,0 5,8 15 8 22 12 SSW 1020,2 10 0,0
16.04.2018 22:00:00 9,1 3,8 7,8 15 8 25 14 SSW 1019,8 10 0,0
16.04.2018 21:00:00 10,8 3,7 9,6 16 9 29 16 SW 1019,4 10 0,0
16.04.2018 20:00:00 11,7 5,3 11,1 18 10 29 16 WSW 1018,4 10 0,0
16.04.2018 19:00:00 12,9 5,8 13,2 21 11 32 18 WSW 1017,5 10 0,0
16.04.2018 18:00:00 13,3 5,8 14,2 26 14 36 19 WSW 1017,5 10 0,0
16.04.2018 17:00:00 14,1 6,5 15,3 24 13 43 23 WSW 1017,3 10 0,0
16.04.2018 16:00:00 14,4 7,1 15,7 28 15 40 21 WSW 1017,0 10 0,0
16.04.2018 15:00:00 13,9 7,7 14,7 29 16 43 23 WSW 1016,4 10 0,0
16.04.2018 14:00:00 14,1 8,2 15,7 24 13 40 21 WSW 1016,2 10 0,0
16.04.2018 13:00:00 13,8 8,2 15,6 28 15 36 19 W 1015,6 10 0,0
16.04.2018 12:00:00 13,6 8,0 14,9 26 14 36 19 W 1015,1 10 0,0
16.04.2018 11:00:00 13,4 7,6 13,4 24 13 32 18 WSW 1014,6 10 0,0
16.04.2018 10:00:00 12,4 8,7 13,0 15 8 29 16 WSW 1013,8 10 0,0
16.04.2018 09:00:00 10,6 8,5 10,5 18 10 29 16 SW 1013,3 10 0,0
16.04.2018 08:00:00 10,3 9,1 9,4 13 7 18 10 SSW 1012,9 10 0,0
16.04.2018 07:00:00 8,6 8,1 7,3 9 5 14 8 SSW 1012,0 9 0,0
16.04.2018 06:00:00 9,2 8,5 7,8 9 5 14 8 SSW 1011,5 5 0,0
16.04.2018 05:00:00 9,3 8,7 7,7 11 6 14 8 S 1011,2 10 0,0
16.04.2018 04:00:00 10,7 9,9 9,6 9 5 11 6 S 1010,7 10 0,0
16.04.2018 03:00:00 11,1 9,4 10,5 5 3 22 12 S 1010,7 10 0,0
16.04.2018 02:00:00 11,8 9,5 11,4 18 10 32 18 WSW 1010,4 10 0,0
16.04.2018 01:00:00 12,8 10,6 12,1 13 7 18 10 S 1010,1 10 0,0
16.04.2018 00:00:00 13,1 11,1 12,1 9 5 14 8 S 1010,2 10 0,0
15.04.2018 23:00:00 12,3 11,3 11,1 5 3 11 6 SE 1010,3 10 0,0
15.04.2018 22:00:00 12,6 11,7 10,9 4 2 7 4 ESE 1010,4 10 0,0
15.04.2018 21:00:00 13,4 11,7 11,5 4 2 7 4 SSE 1010,3 10 0,0
15.04.2018 20:00:00 14,3 11,8 13,3 2 1 11 6 - 1010,0 10 0,0
15.04.2018 19:00:00 14,9 11,2 14,7 8 4 18 10 NW 1009,9 10 0,0
15.04.2018 18:00:00 15,5 12,1 15,5 8 4 14 8 WNW 1009,8 10 0,0
15.04.2018 17:00:00 15,6 11,5 15,4 8 4 14 8 W 1010,1 10 0,2
15.04.2018 16:00:00 16,0 11,3 16,2 13 7 22 12 WNW 1010,4 10 0,0
15.04.2018 15:00:00 15,8 11,0 15,4 11 6 18 10 SSW 1010,7 10 0,0
15.04.2018 14:00:00 17,0 11,6 18,6 15 8 25 14 SSW 1011,0 10 0,0
15.04.2018 13:00:00 16,3 12,2 17,5 13 7 22 12 S 1011,5 10 0,0
15.04.2018 12:00:00 14,2 11,4 15,1 5 3 14 8 SE 1011,8 8 0,0
15.04.2018 11:00:00 12,8 11,8 13,3 8 4 14 8 SSE 1012,3 3,0 0,0
15.04.2018 10:00:00 11,4 11,0 11,9 13 7 18 10 S 1012,8 1,8 0,0
15.04.2018 09:00:00 10,7 10,4 10,9 5 3 11 6 ESE 1012,9 1,8 0,0
15.04.2018 08:00:00 10,1 9,8 10,0 8 4 11 6 ESE 1013,4 1,8 0,0
15.04.2018 07:00:00 9,7 9,4 9,6 9 5 14 8 E 1013,6 1,5 0,2
15.04.2018 06:00:00 9,5 9,3 9,4 5 3 11 6 E 1013,9 2,0 0,7
15.04.2018 05:00:00 9,3 9,0 9,2 5 3 11 6 E 1014,4 2,5 0,7
15.04.2018 04:00:00 9,3 8,8 9,0 9 5 14 8 E 1014,9 3,5 0,6
15.04.2018 03:00:00 9,4 8,4 9,1 8 4 11 6 E 1015,7 5 0,9
15.04.2018 02:00:00 9,8 8,2 9,4 8 4 11 6 E 1016,6 7 0,1
15.04.2018 01:00:00 10,6 7,2 9,7 9 5 14 8 E 1017,0 9 0,0
15.04.2018 00:00:00 10,3 6,9 9,3 8 4 14 8 E 1017,4 9 0,0
14.04.2018 23:00:00 9,4 6,7 7,8 8 4 14 8 NE 1017,5 10 0,0
14.04.2018 22:00:00 10,2 6,4 9,0 9 5 29 16 NE 1017,7 10 0,0

tt = Température de l'air
td = dewpoint
tt 5cm = Température de l'air 5cm
ff = Vitesse du vent
fx = gusts
dd = Direction du vent
ppp = reduced air pressure
vv = visibility
rr = Quantités de précipitations

stations d'obs. à proximité